Regional Weather Roundup
Issued by NWS Charleston, SC

Current Version | Previous Version | Graphics & Text | Print | Product List | Glossary On
Versions: 1 2 3 4 5 6 7 8 9 10 11 12 13 14 15 16 17 18 19 20 21 22 23 24 25 26 27 28 29 30 31 32 33 34 35 36 37 38 39 40 41 42 43 44 45 46 47 48 49 50
000 ASUS42 KCHS 271327 RWRCHS REGIONAL WEATHER ROUNDUP NATIONAL WEATHER SERVICE CHARLESTON SC 900 AM EDT SAT MAY 27 2017 NOTE: "FAIR" INDICATES FEW OR NO CLOUDS BELOW 12,000 FEET WITH NO SIGNIFICANT WEATHER AND/OR OBSTRUCTIONS TO VISIBILITY. NOT ALL STATIONS ARE QUALITY CONTROLLED. USE DATA WITH CAUTION... ESPECIALLY DEWPOINT OBSERVATIONS. SCZ027-030-031-034>040-042>050-271400- ...SOUTHEAST SOUTH CAROLINA... CITY SKY/WX TMP DP RH WIND PRES REMARKS N CHARLESTON SUNNY 76 61 59 W8 30.03S WATERFRONT PRK N/A 75 64 68 VRB3 30.01S JOHNS ISLAND FAIR 79 64 61 SW8 30.03S PINOPOLIS N/A 72 63 73 SW6 29.94R MONCKS CORNER FAIR 75 63 64 SW6 30.02S SUMMERVILLE FAIR 73 63 68 S5 30.03S BEAUFORT MCAS SUNNY 76 64 66 SW12 30.04S BEAUFORT ARPT FAIR 75 63 64 SW7 30.04S HILTON HEAD IS NOT AVBL WALTERBORO SUNNY 75 61 60 SW6 30.03F ALLENDALE FAIR 77 63 61 VRB6 30.02S ...SOUTHERN MIDLANDS AND PEE DEE... CITY SKY/WX TMP DP RH WIND PRES REMARKS GEORGETOWN FAIR 75 63 64 W7 30.02S KINGSTREE FAIR 73 61 64 S5 30.00S ORANGEBURG SUNNY 74 64 71 SW7 30.01S BARNWELL FAIR 79 66 65 W5 30.03R AIKEN FAIR 75 63 64 SW7 30.05S MANNING FAIR 73 66 78 SW13G18 30.00F COLUMBIA MOSUNNY 81 64 56 W9 29.98S SUMTER SUNNY 76 63 63 SW8 29.97S FLORENCE SUNNY 73 63 70 VRB7 29.99S MYRTLE BEACH SUNNY 75 63 64 W8 30.01R N MYRTLE BEACH SUNNY 76 62 62 W5 29.99S $$ GAZ063-065-086>088-099>101-113>116-118-119-134>141-150-271400- ...SOUTHEAST GEORGIA... CITY SKY/WX TMP DP RH WIND PRES REMARKS SAVANNAH ARPT MOSUNNY 76 60 57 W5 30.05S HUNTER AAF SUNNY 75 67 77 CALM 30.03S FORT STEWART SUNNY 74 62 66 W8 30.04S STATESBORO SUNNY 76 65 68 W7 30.05S SYLVANIA SUNNY 75 66 72 W5 30.05S CLAXTON FAIR 75 69 81 SW5 30.06R ...CSRA...CENTRAL AND FAR SOUTHEAST GEORGIA... CITY SKY/WX TMP DP RH WIND PRES REMARKS THOMSON SUNNY 76 64 66 W6 30.08S AUGUSTA-BUSH SUNNY 77 64 64 W7 30.02S AUGUSTA-DANIEL SUNNY 78 61 55 W6 30.03S SWAINSBORO FAIR 73 64 73 W5 30.06S VIDALIA SUNNY 75 64 69 W3 30.07S EASTMAN FAIR 76 56 49 W5 30.09S HAZLEHURST FAIR 76 67 72 W3 30.07R ALMA SUNNY 74 64 71 W5 30.07S WAYCROSS SUNNY 78 68 69 W6 30.08R JESUP FAIR 77 63 61 NW6 30.07S BAXLEY FAIR 77 68 73 W5 30.07S BRUNSWICK SUNNY 77 68 73 NW5 30.07S SAINT SIMONS LGT RAIN 75 65 70 W7 30.06F $$ SCZ027-028-034-036>038-045-046-048>050-GAZ119-141-271400- ...LAKE AND SUPPLEMENTAL COASTAL OBSERVATIONS... STATION/POSITION TIME TEMP WIND PRES WAVE SWELL AIR SEA DIR/SP/G HT/PER HT/PER/DIR (UTC) (F) (DEG/KT/KT) (MB) (FT/S) (FT/S/D) WINYAH BAY 1245 75 260/ 6 1016.0S LAKE MURRAY 1220 74 270/ 8/ 9 1014.6F ACE BASIN NERRS 1245 75 220/ 1 1017.0S FORT PULASKI 1300 76 260/ 5/ 8 1018.0 SAPELO ISLAND 1230 72 270/ 1 1018.0S $$ ANZ835-935-AMZ111-154-330-350-352-354-370-450-454-472-271400- ...C-MAN AND BUOY OBSERVATIONS... STATION/POSITION TIME TEMP WIND PRES WAVE SWELL AIR SEA DIR/SP/G HT/PER HT/PER/DIR (UTC) (F) (DEG/KT/KT) (MB) (FT/S) (FT/S/D) BUOY 41004 1300 75 74 230/ 12/ 14 1016.9 BUOY 41008 1250 74 77 260/ 10/ 12 1017.6R 2/ 4 2/100/ 7 FOLLY BEACH CMAN 1300 78 240/ 7/ 10 1017.6R CAPERS NEARSHORE 1308 80 76 260/ 12/ 16 1016.6R FRIPP NEARSHORE 1308 76 76 240/ 12/ 16 1017.0R STATION/POSITION TIME TEMP WIND PRES WAVE SWELL AIR SEA DIR/SP/G HT/PER HT/PER/DIR (UTC) (F) (DEG/KT/KT) (MB) (FT/S) (FT/S/D) 5E ST. MARYS GA 1300 78 N/A 2/ 7 FRYING PAN BUOY 1300 74 75 240/ 12/ 16 1016.0 BUOY 41025 1250 76 76 240/ 10/ 12 1014.5R 4/ 8 3/150/ 8 CAPE LOOKOUT NC 1300 75 250/ 7/ 10 1014.8R BUOY 41002 1250 76 77 270/ 10/ 12 1017.3R 4/ 6 3/210/ 6 BUOY 41010 1300 79 79 240/ 2/ 2 1019.0 ST AUGUSTINE FL 1300 73 76 350/ 5/ 6 1019.8R $$

USA.gov is the U.S. government's official web portal to all federal, state and local government web resources and services.